Voltar ao catálogo

ATLAS 5 CENTAUR DEB

LostHEO
NORAD 44008·DEBRIS·🇺🇸 United States

Lançado Sep 17, 2014 de Cape Canaveral Space Force Station

Loading…

Próximas Passagens (próximas 24 horas)

TLE

ObsoletoSource: Space-Track

Época: Oct 13, 2020, 21:28 UTC

1 44008U 14055BP  20287.89466529 -.00000090  00000-0  00000+0 0  9998
2 44008  22.3224 352.7656 3963810 154.9569 231.0370  1.81941307 14102

Acompanhe ATLAS 5 CENTAUR DEB em tempo real com AllMySat

Download on the App Store